Total_Precipitation_Accumulation
1.14 1.42 2.09 3.03 4.00 3.36 2.54 2.23 1.82 1.50 1.17 1.02 0.95 0.99 1.18 1.42 1.91 2.67 2.96 2.71 1.99 1.84 2.27 3.14 3.35 3.16 2.89 2.46 2.38 2.48 2.55 2.79 2.77 2.53 2.28 2.01 1.80 1.71 1.72 1.57 1.51 1.47 1.41 1.45 1.50 1.48 1.44 1.43 1.38
1.08 1.96 2.72 3.84 3.93 2.81 2.46 2.27 1.87 1.29 0.94 0.72 0.63 0.83 1.00 0.95 1.14 1.94 2.85 2.76 1.84 1.60 1.88 2.49 3.02 2.94 2.70 2.42 2.36 2.47 2.48 2.46 2.41 2.16 1.86 1.76 1.71 1.66 1.55 1.53 1.55 1.44 1.29 1.29 1.33 1.44 1.44 1.38 1.34
1.24 2.19 2.95 3.48 2.84 2.41 2.38 2.10 1.61 1.12 0.78 0.64 0.57 0.63 0.87 1.22 1.53 2.22 2.59 1.93 1.51 1.32 1.73 2.43 2.92 2.71 2.44 2.28 2.29 2.30 2.36 2.30 2.20 2.09 1.87 1.73 1.69 1.62 1.55 1.55 1.54 1.39 1.23 1.11 1.21 1.32 1.32 1.25 1.26
1.66 2.52 2.88 2.67 2.17 1.77 1.77 1.72 1.22 1.02 0.72 0.51 0.52 0.68 0.90 1.43 1.81 2.22 2.19 1.57 1.33 1.31 1.65 2.03 2.38 2.21 2.05 2.06 2.08 1.98 1.83 1.85 2.05 2.10 1.94 1.81 1.63 1.51 1.45 1.46 1.37 1.19 1.09 1.06 1.11 1.21 1.20 1.15 1.17
2.00 2.71 2.79 2.25 1.86 1.60 1.42 1.22 0.99 0.96 0.84 0.64 0.53 0.93 1.46 1.75 1.88 1.93 1.85 1.48 1.33 1.53 1.84 1.90 2.10 1.99 1.94 1.93 1.91 1.79 1.79 1.91 2.08 2.08 1.97 1.86 1.61 1.42 1.40 1.31 1.16 0.98 0.92 0.99 1.16 1.23 1.12 1.05 1.07
2.46 2.69 3.04 2.37 1.91 1.61 1.48 1.14 0.88 0.81 0.75 0.63 0.61 0.94 1.63 1.97 1.92 1.86 1.77 1.55 1.41 1.45 1.64 1.75 2.03 1.99 1.86 1.75 1.80 1.71 1.82 2.11 2.22 2.09 2.00 1.95 1.66 1.43 1.27 1.17 1.04 0.91 0.84 0.91 1.05 1.12 1.04 0.98 1.05
2.62 2.79 2.59 1.99 1.83 1.92 1.52 0.98 0.89 0.86 0.82 0.69 0.58 0.92 1.58 1.98 1.70 1.49 1.51 1.39 1.34 1.32 1.37 1.34 1.43 1.58 1.58 1.61 1.77 1.83 2.01 2.15 2.14 1.97 1.90 1.85 1.50 1.25 1.13 1.09 1.01 0.92 0.92 0.99 1.03 1.11 1.07 1.03 1.09
1.78 1.99 2.00 1.86 1.86 1.85 1.29 0.81 0.71 0.71 0.76 0.51 0.49 0.84 1.44 1.63 1.38 1.39 1.36 1.34 1.37 1.29 1.23 1.09 1.13 1.32 1.44 1.48 1.63 1.81 2.00 2.04 1.99 1.82 1.73 1.60 1.33 1.12 1.12 1.05 1.00 0.93 0.93 1.03 1.10 1.13 1.06 1.02 1.06
1.65 1.99 2.25 2.06 1.78 1.55 1.08 0.85 0.64 0.48 0.53 0.46 0.42 0.53 0.78 0.97 1.09 1.26 1.35 1.29 1.41 1.29 1.14 1.06 0.96 1.00 1.20 1.34 1.40 1.72 1.87 1.88 1.71 1.62 1.65 1.45 1.08 0.96 1.02 1.01 1.15 1.09 1.08 1.11 1.16 1.14 1.03 0.92 0.88
1.64 2.09 2.10 1.50 1.14 1.08 0.99 0.86 0.70 0.66 0.70 0.62 0.54 0.53 0.61 0.79 0.97 1.10 1.17 1.19 1.25 1.24 1.05 0.98 0.91 0.88 0.88 0.94 1.24 1.66 1.52 1.45 1.21 1.16 1.17 1.16 1.08 1.04 0.85 0.96 1.24 1.26 1.19 1.12 1.12 1.09 0.88 0.68 0.61
1.33 1.47 1.32 1.20 0.88 0.75 0.88 0.83 0.64 0.70 0.82 0.64 0.60 0.58 0.59 0.71 0.80 0.91 0.95 0.95 0.96 1.04 0.99 0.94 0.85 0.78 0.81 0.92 1.03 1.23 1.28 1.28 1.12 0.98 0.94 1.03 1.00 0.90 0.79 0.78 0.89 0.99 1.03 0.89 0.85 0.84 0.67 0.61 0.65
1.17 1.06 0.92 0.88 0.69 0.71 0.90 0.78 0.67 0.77 0.74 0.51 0.42 0.42 0.55 0.65 0.69 0.72 0.80 0.92 0.94 0.99 1.01 0.97 0.89 0.86 0.85 0.79 0.74 0.81 0.86 0.90 0.93 0.88 0.83 0.94 0.90 0.86 0.84 0.84 0.79 0.80 0.84 0.89 0.83 0.80 0.70 0.68 0.69
1.09 1.00 0.81 0.66 0.69 0.72 0.79 0.83 0.72 0.74 0.61 0.50 0.43 0.52 0.60 0.62 0.63 0.64 0.70 0.81 0.89 0.94 1.01 0.96 0.88 0.85 0.86 0.81 0.71 0.68 0.76 0.79 0.87 0.91 0.84 0.84 0.87 0.87 0.81 0.76 0.81 0.82 0.81 0.84 0.83 0.74 0.71 0.72 0.68
1.02 0.93 0.85 0.72 0.70 0.74 0.80 0.84 0.79 0.86 0.67 0.56 0.49 0.55 0.58 0.60 0.62 0.65 0.67 0.75 0.79 0.81 0.98 1.01 0.93 0.94 0.91 0.84 0.75 0.73 0.79 0.88 0.87 0.76 0.71 0.74 0.76 0.80 0.88 0.89 0.89 0.89 0.89 0.96 0.98 0.79 0.80 0.86 0.80
0.90 0.95 0.93 0.85 0.81 0.79 0.84 1.06 0.96 0.88 0.75 0.72 0.61 0.53 0.55 0.55 0.55 0.63 0.61 0.68 0.76 0.85 0.98 1.00 0.97 1.08 1.01 0.91 0.88 0.79 0.80 0.85 0.89 0.84 0.79 0.79 0.79 0.81 0.92 0.99 1.01 0.97 0.94 1.00 1.29 1.16 0.91 0.87 0.86
1.03 1.13 1.29 0.91 0.80 0.83 0.99 1.22 0.91 0.88 0.86 0.93 0.76 0.63 0.58 0.55 0.54 0.53 0.53 0.65 0.70 0.88 0.97 1.09 1.00 1.10 1.10 1.03 1.01 0.93 0.92 0.99 0.99 0.97 0.97 0.91 0.90 0.91 1.00 1.06 0.98 1.02 1.08 1.17 1.40 1.49 1.18 0.93 0.91
1.18 1.27 1.24 0.96 0.73 0.76 0.88 0.99 0.81 0.77 0.75 0.77 0.73 0.66 0.65 0.54 0.51 0.47 0.48 0.56 0.64 0.81 0.93 1.10 1.10 1.07 1.14 1.19 1.21 1.12 1.07 1.10 1.09 1.05 1.00 1.00 1.02 1.08 1.15 1.16 1.11 1.11 1.14 1.28 1.30 1.52 1.53 1.29 1.15
1.11 1.00 0.95 0.85 0.74 0.74 0.76 0.67 0.66 0.65 0.67 0.63 0.64 0.61 0.57 0.51 0.51 0.47 0.43 0.45 0.53 0.71 0.86 1.02 1.18 1.29 1.37 1.40 1.46 1.43 1.31 1.23 1.26 1.26 1.22 1.24 1.32 1.26 1.31 1.34 1.35 1.43 1.44 1.45 1.40 1.60 1.70 1.50 1.46
0.77 0.77 0.80 0.69 0.60 0.63 0.58 0.52 0.55 0.59 0.63 0.56 0.57 0.56 0.47 0.43 0.47 0.45 0.40 0.44 0.47 0.60 0.71 0.90 1.28 1.72 1.90 1.80 1.78 1.84 1.89 1.83 1.73 1.69 1.66 1.72 1.72 1.71 1.74 1.72 1.70 1.68 1.65 1.73 1.72 2.01 2.37 1.89 1.65
0.71 0.77 0.81 0.72 0.51 0.51 0.51 0.45 0.45 0.51 0.52 0.48 0.45 0.48 0.44 0.40 0.37 0.36 0.34 0.39 0.43 0.61 0.78 0.91 1.21 1.66 1.86 1.99 2.11 2.31 2.47 2.33 2.19 2.18 2.14 2.19 2.22 2.38 2.31 2.28 2.28 2.21 2.22 2.22 2.13 2.26 2.61 2.25 1.99
0.71 0.74 0.73 0.66 0.51 0.47 0.46 0.49 0.43 0.48 0.42 0.40 0.40 0.41 0.37 0.31 0.29 0.31 0.32 0.37 0.41 0.55 0.70 0.86 1.08 1.37 1.70 1.97 2.22 2.49 2.72 2.70 2.57 2.41 2.38 2.44 2.51 2.64 2.73 2.71 2.78 2.63 2.51 2.57 2.48 2.45 2.67 2.73 2.43
0.74 0.51 0.47 0.46 0.61 0.62 0.47 0.71 0.51 0.49 0.44 0.39 0.39 0.39 0.37 0.32 0.30 0.34 0.33 0.36 0.41 0.50 0.62 0.80 1.02 1.26 1.49 1.71 2.10 2.53 2.82 2.91 2.81 2.71 2.66 2.64 2.65 2.68 2.87 2.89 3.01 2.87 2.78 2.76 2.66 2.47 2.65 3.00 2.95
0.56 0.43 0.44 0.46 0.56 0.52 0.37 0.51 0.50 0.41 0.44 0.39 0.36 0.34 0.34 0.33 0.34 0.37 0.38 0.43 0.49 0.56 0.64 0.79 0.95 1.19 1.43 1.64 1.98 2.38 2.63 2.82 2.94 2.76 2.63 2.65 2.67 2.69 2.82 2.97 3.07 2.93 2.83 2.78 2.88 2.78 2.74 2.71 2.75
0.44 0.48 0.47 0.50 0.57 0.62 0.30 0.43 0.55 0.39 0.36 0.38 0.34 0.30 0.33 0.36 0.40 0.44 0.54 0.61 0.64 0.61 0.69 0.83 0.95 1.12 1.26 1.38 1.60 1.83 2.16 2.37 2.68 2.66 2.59 2.70 2.67 2.59 2.53 2.70 2.94 2.88 2.87 2.87 2.95 3.01 2.96 2.96 2.99
0.43 0.67 0.89 0.91 0.88 0.58 0.24 0.39 0.54 0.40 0.32 0.32 0.33 0.32 0.36 0.39 0.43 0.51 0.66 0.75 0.80 0.72 0.71 0.80 0.97 1.06 1.13 1.22 1.31 1.45 1.67 1.78 2.14 2.45 2.42 2.33 2.38 2.43 2.48 2.53 2.53 2.54 2.64 2.79 2.99 2.97 2.90 2.89 2.98
0.37 0.58 0.94 1.08 0.95 0.60 0.39 0.57 0.61 0.45 0.36 0.32 0.32 0.35 0.39 0.44 0.50 0.68 0.85 0.92 0.93 0.85 0.80 0.86 1.04 1.12 1.15 1.18 1.21 1.30 1.38 1.42 1.57 1.78 1.89 1.90 1.94 2.16 2.29 2.40 2.37 2.38 2.47 2.57 2.69 2.71 2.75 2.72 2.69
0.34 0.40 0.46 0.66 0.63 0.67 0.61 0.69 0.62 0.42 0.40 0.40 0.42 0.47 0.58 0.66 0.71 0.85 1.00 1.10 1.02 0.92 0.85 0.92 1.05 1.20 1.23 1.26 1.31 1.38 1.36 1.31 1.38 1.39 1.50 1.67 1.70 1.76 1.90 2.00 2.11 2.23 2.29 2.37 2.53 2.59 2.59 2.61 2.61
0.25 0.32 0.49 0.71 0.92 0.95 0.75 0.75 0.74 0.61 0.56 0.52 0.56 0.61 0.74 0.84 0.92 1.01 1.16 1.21 1.10 0.99 0.91 0.96 1.08 1.20 1.40 1.53 1.47 1.43 1.47 1.49 1.67 1.69 1.53 1.47 1.62 1.66 1.71 1.77 1.85 2.02 2.12 2.21 2.29 2.40 2.51 2.50 2.51
0.30 0.39 0.54 0.74 0.78 1.06 1.19 1.08 0.83 0.76 0.74 0.76 0.80 0.84 0.90 1.02 1.03 1.03 1.14 1.23 1.14 0.97 0.91 0.92 0.98 1.10 1.23 1.27 1.32 1.30 1.37 1.47 1.71 1.91 1.86 1.66 1.62 1.62 1.60 1.58 1.63 1.79 1.91 2.02 2.14 2.21 2.20 2.21 2.34
0.38 0.50 0.71 1.10 1.04 0.96 1.17 1.15 0.81 0.74 0.78 0.78 0.79 0.79 0.83 0.93 0.93 0.98 1.04 1.01 0.94 0.82 0.76 0.77 0.80 0.92 1.06 1.08 1.14 1.22 1.23 1.33 1.44 1.55 1.58 1.50 1.37 1.33 1.37 1.42 1.42 1.50 1.70 1.84 1.87 1.91 1.90 1.93 2.04